Simultaneous Nadir Overpasses (SNOs) Predictions

Prediction of SNOs between GOES-15 and LANDSAT-8 Satellite Orbit:

Table of predicted SNOs for the next 14.0 days since TLE Epoch: 3/27/2021
Index Date Time (GOES-15) GOES-15 Lat,Lon LANDSAT-8 Lat,Lon Distance(km) Time Diff (sec)
1 03/28/2021 06:39:32 -0.14,-128.32 0.12,-127.20 128.48 80
2 03/28/2021 19:00:47 0.13,-128.40 1.00,-132.35 449.50 80
3 03/30/2021 06:27:20 -0.14,-128.30 0.74,-124.24 462.31 80
4 03/30/2021 18:48:35 0.14,-128.38 0.38,-129.39 115.75 80
5 04/01/2021 18:39:04 0.13,-128.35 -0.30,-126.45 217.24 80
6 04/02/2021 07:00:27 -0.13,-128.27 -0.87,-131.63 382.85 80
7 04/04/2021 06:48:15 -0.12,-128.23 -0.25,-128.67 50.97 80
8 04/06/2021 06:33:23 -0.12,-128.19 0.38,-125.72 280.91 80
9 04/06/2021 18:54:39 0.11,-128.26 0.67,-130.88 298.51 80
10 04/08/2021 18:45:07 0.11,-128.22 0.04,-127.93 33.47 80
